CEB915 RPVB-RPSP

Flight info

Callsign CEB915
Flight time 0h 52m
Altitude 13000
Route TAG2C TADAG DCT MCT MCT1
Aircraft AT76/M-SDFGIRY/S

Departure

Time 2026-04-21 14:05
Airport Bacolod-Silay International Airport (RPVB)

Arrival

Time 2026-04-21 14:57
Airport Bohol-Panglao International Airport (RPSP)
Time Latitude Longitude Altitude Speed Heading
2026-04-21 13:47 10.77349 123.01418 79 ft 0 kts 208°
2026-04-21 13:53 10.77350 123.01419 79 ft 0 kts 208°
2026-04-21 14:01 10.77351 123.01419 79 ft 0 kts 208°
2026-04-21 14:01 10.77347 123.01420 79 ft 1 kts 175°
2026-04-21 14:01 10.77330 123.01430 82 ft 6 kts 161°
2026-04-21 14:02 10.77314 123.01448 79 ft 3 kts 101°
2026-04-21 14:02 10.77365 123.01491 79 ft 11 kts 32°
2026-04-21 14:02 10.77357 123.01530 80 ft 10 kts 126°
2026-04-21 14:03 10.77151 123.01614 80 ft 29 kts 208°
2026-04-21 14:03 10.76964 123.01498 84 ft 24 kts 230°
2026-04-21 14:03 10.76894 123.01443 87 ft 5 kts 124°
2026-04-21 14:03 10.76911 123.01474 81 ft 1 kts 26°
2026-04-21 14:04 10.76913 123.01475 81 ft 0 kts 30°
2026-04-21 14:04 10.77085 123.01578 81 ft 60 kts 32°
2026-04-21 14:04 10.77618 123.01900 103 ft 113 kts 31°
2026-04-21 14:05 10.78318 123.02277 660 ft 112 kts 28°
2026-04-21 14:05 10.79029 123.02648 1202 ft 118 kts 34°
2026-04-21 14:05 10.79714 123.03104 1727 ft 116 kts 38°
2026-04-21 14:05 10.80380 123.03578 2051 ft 117 kts 39°
2026-04-21 14:06 10.81055 123.04049 2371 ft 118 kts 39°
2026-04-21 14:06 10.81735 123.04522 2692 ft 118 kts 39°
2026-04-21 14:06 10.82462 123.04910 3029 ft 125 kts 11°
2026-04-21 14:06 10.83227 123.04463 3317 ft 142 kts 302°
2026-04-21 14:07 10.83247 123.03478 3602 ft 145 kts 240°
2026-04-21 14:07 10.82497 123.02903 3872 ft 133 kts 185°
2026-04-21 14:07 10.81592 123.02722 4205 ft 133 kts 185°
2026-04-21 14:07 10.80680 123.02528 4526 ft 134 kts 180°
2026-04-21 14:08 10.79918 123.02875 4799 ft 121 kts 113°
2026-04-21 14:08 10.80046 123.03644 5061 ft 121 kts 43°
2026-04-21 14:08 10.80875 123.03733 5319 ft 135 kts 336°
2026-04-21 14:08 10.81393 123.02939 5586 ft 144 kts 274°
2026-04-21 14:09 10.81031 123.02009 5749 ft 152 kts 213°
2026-04-21 14:09 10.80044 123.01622 5867 ft 157 kts 190°
2026-04-21 14:09 10.79345 123.01419 6093 ft 158 kts 192°
2026-04-21 14:09 10.77954 123.01425 6543 ft 149 kts 146°
2026-04-21 14:10 10.77111 123.02040 6817 ft 148 kts 128°
2026-04-21 14:10 10.76371 123.02748 7031 ft 153 kts 160°
2026-04-21 14:10 10.75290 123.02817 7330 ft 158 kts 174°
2026-04-21 14:10 10.74207 123.02926 7655 ft 156 kts 167°
2026-04-21 14:11 10.73131 123.03120 7980 ft 157 kts 165°
2026-04-21 14:11 10.72061 123.03359 8303 ft 158 kts 164°
2026-04-21 14:11 10.70992 123.03616 8636 ft 158 kts 165°
2026-04-21 14:11 10.69917 123.03885 8917 ft 161 kts 164°
2026-04-21 14:12 10.68829 123.04168 9233 ft 162 kts 164°
2026-04-21 14:12 10.68104 123.04358 9440 ft 163 kts 165°
2026-04-21 14:12 10.66633 123.04731 9867 ft 163 kts 166°
2026-04-21 14:12 10.65527 123.05005 10144 ft 164 kts 166°
2026-04-21 14:13 10.64413 123.05276 10415 ft 165 kts 166°
2026-04-21 14:13 10.63292 123.05551 10672 ft 168 kts 167°
2026-04-21 14:13 10.62533 123.05737 10819 ft 171 kts 167°
2026-04-21 14:13 10.61375 123.06020 11097 ft 171 kts 167°
2026-04-21 14:14 10.60211 123.06302 11374 ft 173 kts 167°
2026-04-21 14:14 10.59042 123.06587 11650 ft 174 kts 167°
2026-04-21 14:14 10.57863 123.06877 11926 ft 174 kts 168°
2026-04-21 14:14 10.56679 123.07166 12205 ft 175 kts 168°
2026-04-21 14:15 10.55490 123.07456 12468 ft 176 kts 168°
2026-04-21 14:15 10.54281 123.07750 12694 ft 180 kts 168°
2026-04-21 14:15 10.53031 123.08050 12819 ft 190 kts 169°
2026-04-21 14:15 10.51700 123.08363 12871 ft 202 kts 169°
2026-04-21 14:16 10.50286 123.08686 12903 ft 215 kts 169°
2026-04-21 14:16 10.48798 123.09034 12907 ft 224 kts 169°
2026-04-21 14:16 10.47258 123.09410 12911 ft 231 kts 168°
2026-04-21 14:16 10.45681 123.09803 12914 ft 236 kts 168°
2026-04-21 14:17 10.44067 123.10206 12914 ft 241 kts 168°
2026-04-21 14:17 10.42426 123.10615 12908 ft 245 kts 168°
2026-04-21 14:17 10.40767 123.11032 12913 ft 247 kts 168°
2026-04-21 14:17 10.39091 123.11448 12909 ft 249 kts 168°
2026-04-21 14:18 10.37408 123.11868 12902 ft 250 kts 168°
2026-04-21 14:18 10.35714 123.12286 12902 ft 250 kts 169°
2026-04-21 14:18 10.34020 123.12695 12901 ft 250 kts 169°
2026-04-21 14:18 10.32327 123.13104 12903 ft 250 kts 168°
2026-04-21 14:19 10.30632 123.13516 12906 ft 250 kts 168°
2026-04-21 14:19 10.28950 123.13973 12907 ft 251 kts 159°
2026-04-21 14:19 10.27614 123.15106 12904 ft 257 kts 124°
2026-04-21 14:19 10.27036 123.16815 12905 ft 258 kts 99°
2026-04-21 14:20 10.26949 123.18636 12906 ft 259 kts 88°
2026-04-21 14:20 10.27073 123.20463 12906 ft 259 kts 85°
2026-04-21 14:20 10.27240 123.22288 12903 ft 260 kts 85°
2026-04-21 14:20 10.27399 123.24123 12904 ft 261 kts 86°
2026-04-21 14:21 10.27520 123.25962 12908 ft 262 kts 87°
2026-04-21 14:21 10.27619 123.27808 12903 ft 262 kts 87°
2026-04-21 14:21 10.27719 123.29652 12905 ft 262 kts 87°
2026-04-21 14:21 10.27817 123.31497 12908 ft 262 kts 87°
2026-04-21 14:22 10.27917 123.33342 12908 ft 262 kts 87°
2026-04-21 14:22 10.28018 123.35185 12905 ft 262 kts 87°
2026-04-21 14:22 10.28116 123.37028 12908 ft 262 kts 87°
2026-04-21 14:22 10.28216 123.38873 12906 ft 262 kts 87°
2026-04-21 14:23 10.28316 123.40715 12908 ft 262 kts 88°
2026-04-21 14:23 10.28414 123.42560 12908 ft 262 kts 87°
2026-04-21 14:23 10.28513 123.44404 12907 ft 262 kts 87°
2026-04-21 14:23 10.28613 123.46249 12905 ft 262 kts 87°
2026-04-21 14:24 10.28710 123.48091 12906 ft 261 kts 87°
2026-04-21 14:24 10.28809 123.49936 12901 ft 261 kts 87°
2026-04-21 14:24 10.28909 123.51779 12902 ft 261 kts 87°
2026-04-21 14:24 10.29005 123.53623 12903 ft 261 kts 87°
2026-04-21 14:25 10.29103 123.55466 12904 ft 262 kts 87°
2026-04-21 14:25 10.29204 123.57333 12904 ft 261 kts 88°
2026-04-21 14:25 10.29301 123.59179 12899 ft 262 kts 87°
2026-04-21 14:25 10.29400 123.61024 12901 ft 262 kts 87°
2026-04-21 14:26 10.29499 123.62872 12903 ft 262 kts 87°
2026-04-21 14:26 10.29597 123.64720 12906 ft 262 kts 87°
2026-04-21 14:26 10.29695 123.66572 12906 ft 263 kts 87°
2026-04-21 14:26 10.29792 123.68426 12903 ft 263 kts 87°
2026-04-21 14:27 10.29888 123.70280 12905 ft 263 kts 88°
2026-04-21 14:27 10.29986 123.72134 12906 ft 263 kts 88°
2026-04-21 14:27 10.30084 123.73986 12912 ft 263 kts 87°
2026-04-21 14:27 10.30180 123.75815 12914 ft 263 kts 88°
2026-04-21 14:28 10.30277 123.77668 12910 ft 263 kts 88°
2026-04-21 14:28 10.30376 123.79522 12913 ft 263 kts 88°
2026-04-21 14:28 10.30473 123.81374 12909 ft 263 kts 87°
2026-04-21 14:28 10.30570 123.83226 12914 ft 263 kts 88°
2026-04-21 14:29 10.30667 123.85082 12915 ft 263 kts 88°
2026-04-21 14:29 10.30764 123.86936 12912 ft 263 kts 88°
2026-04-21 14:29 10.30862 123.88791 12916 ft 263 kts 87°
2026-04-21 14:29 10.30958 123.90644 12915 ft 263 kts 88°
2026-04-21 14:30 10.31056 123.92499 12914 ft 263 kts 88°
2026-04-21 14:30 10.31150 123.94352 12915 ft 263 kts 88°
2026-04-21 14:30 10.31241 123.96205 12913 ft 261 kts 89°
2026-04-21 14:30 10.30846 123.97958 12918 ft 256 kts 122°
2026-04-21 14:31 10.29598 123.99186 12916 ft 250 kts 155°
2026-04-21 14:31 10.27928 123.99502 12917 ft 245 kts 189°
2026-04-21 14:31 10.26370 123.98883 12920 ft 241 kts 211°
2026-04-21 14:31 10.24888 123.98069 12916 ft 243 kts 208°
2026-04-21 14:32 10.23335 123.97379 12915 ft 245 kts 202°
2026-04-21 14:32 10.21703 123.96867 12917 ft 246 kts 195°
2026-04-21 14:32 10.20025 123.96511 12916 ft 247 kts 192°
2026-04-21 14:32 10.18333 123.96215 12914 ft 247 kts 192°
2026-04-21 14:33 10.16637 123.95919 12915 ft 247 kts 192°
2026-04-21 14:33 10.14943 123.95616 12916 ft 248 kts 192°
2026-04-21 14:33 10.13248 123.95291 12912 ft 248 kts 193°
2026-04-21 14:33 10.11554 123.94959 12912 ft 248 kts 193°
2026-04-21 14:34 10.09858 123.94626 12911 ft 248 kts 193°
2026-04-21 14:34 10.08163 123.94293 12910 ft 248 kts 193°
2026-04-21 14:34 10.06468 123.93960 12910 ft 248 kts 193°
2026-04-21 14:34 10.04773 123.93625 12912 ft 248 kts 193°
2026-04-21 14:35 10.03076 123.93292 12911 ft 248 kts 193°
2026-04-21 14:35 10.01379 123.92959 12914 ft 248 kts 193°
2026-04-21 14:35 9.99681 123.92624 12911 ft 249 kts 193°
2026-04-21 14:35 9.97983 123.92291 12912 ft 249 kts 193°
2026-04-21 14:36 9.96285 123.91957 12910 ft 249 kts 193°
2026-04-21 14:36 9.94587 123.91622 12911 ft 249 kts 193°
2026-04-21 14:36 9.92889 123.91287 12912 ft 249 kts 193°
2026-04-21 14:36 9.91192 123.90954 12908 ft 248 kts 193°
2026-04-21 14:37 9.89495 123.90621 12910 ft 248 kts 193°
2026-04-21 14:37 9.87799 123.90288 12907 ft 248 kts 193°
2026-04-21 14:37 9.86102 123.89952 12911 ft 248 kts 193°
2026-04-21 14:37 9.84406 123.89619 12911 ft 248 kts 193°
2026-04-21 14:38 9.82708 123.89288 12906 ft 248 kts 192°
2026-04-21 14:38 9.81011 123.88953 12908 ft 248 kts 193°
2026-04-21 14:38 9.79314 123.88620 12905 ft 248 kts 192°
2026-04-21 14:38 9.77619 123.88288 12903 ft 248 kts 193°
2026-04-21 14:39 9.75882 123.87943 12557 ft 261 kts 192°
2026-04-21 14:39 9.74070 123.87581 12199 ft 271 kts 192°
2026-04-21 14:39 9.72191 123.87202 11833 ft 278 kts 192°
2026-04-21 14:39 9.70275 123.86811 11464 ft 284 kts 192°
2026-04-21 14:40 9.68324 123.86415 11085 ft 288 kts 192°
2026-04-21 14:40 9.66351 123.86015 10709 ft 287 kts 191°
2026-04-21 14:40 9.64528 123.85654 10364 ft 249 kts 191°
2026-04-21 14:40 9.62853 123.85329 10041 ft 243 kts 191°
2026-04-21 14:41 9.61193 123.85002 9729 ft 243 kts 191°
2026-04-21 14:41 9.59534 123.84677 9386 ft 243 kts 190°
2026-04-21 14:41 9.57875 123.84351 9047 ft 243 kts 190°
2026-04-21 14:41 9.56240 123.84031 8715 ft 243 kts 190°
2026-04-21 14:42 9.54583 123.83707 8382 ft 243 kts 190°
2026-04-21 14:42 9.52926 123.83381 8053 ft 243 kts 189°
2026-04-21 14:42 9.51268 123.83056 7717 ft 243 kts 189°
2026-04-21 14:42 9.49641 123.82644 7388 ft 241 kts 203°
2026-04-21 14:43 9.48360 123.81553 7073 ft 244 kts 229°
2026-04-21 14:43 9.47392 123.80132 6741 ft 247 kts 239°
2026-04-21 14:43 9.46589 123.78597 6417 ft 245 kts 243°
2026-04-21 14:43 9.45839 123.77065 6083 ft 241 kts 243°
2026-04-21 14:44 9.45092 123.75555 5742 ft 238 kts 242°
2026-04-21 14:44 9.44327 123.74074 5410 ft 236 kts 241°
2026-04-21 14:44 9.43551 123.72616 5079 ft 234 kts 240°
2026-04-21 14:44 9.42615 123.71314 4760 ft 227 kts 215°
2026-04-21 14:45 9.41185 123.70787 4447 ft 218 kts 176°
2026-04-21 14:45 9.39806 123.71220 4177 ft 203 kts 143°
2026-04-21 14:45 9.38643 123.72007 3937 ft 200 kts 141°
2026-04-21 14:45 9.37519 123.72810 3730 ft 195 kts 140°
2026-04-21 14:46 9.36257 123.73218 3674 ft 193 kts 180°
2026-04-21 14:46 9.35107 123.72642 3786 ft 185 kts 227°
2026-04-21 14:46 9.34348 123.71546 3831 ft 200 kts 234°
2026-04-21 14:46 9.33605 123.70399 3856 ft 190 kts 236°
2026-04-21 14:47 9.32919 123.69288 3825 ft 186 kts 237°
2026-04-21 14:47 9.32229 123.68162 3666 ft 191 kts 237°
2026-04-21 14:47 9.31518 123.67001 3404 ft 199 kts 237°
2026-04-21 14:47 9.30774 123.65776 3081 ft 209 kts 238°
2026-04-21 14:48 9.29998 123.64505 2818 ft 213 kts 238°
2026-04-21 14:48 9.29277 123.63221 2683 ft 205 kts 251°
2026-04-21 14:48 9.29289 123.61860 2644 ft 189 kts 298°
2026-04-21 14:48 9.30135 123.60978 2632 ft 168 kts 345°
2026-04-21 14:49 9.31194 123.61039 2635 ft 148 kts 36°
2026-04-21 14:49 9.31914 123.61731 2589 ft 148 kts 46°
2026-04-21 14:49 9.32699 123.62505 2603 ft 164 kts 46°
2026-04-21 14:49 9.33543 123.63328 2609 ft 170 kts 44°
2026-04-21 14:50 9.34141 123.63851 2610 ft 172 kts 41°
2026-04-21 14:50 9.35463 123.64787 2593 ft 174 kts 34°
2026-04-21 14:50 9.36530 123.65371 2602 ft 175 kts 29°
2026-04-21 14:50 9.37648 123.65871 2586 ft 176 kts 26°
2026-04-21 14:51 9.38790 123.66327 2573 ft 177 kts 25°
2026-04-21 14:51 9.39935 123.66780 2580 ft 176 kts 25°
2026-04-21 14:51 9.41015 123.67232 2532 ft 160 kts 29°
2026-04-21 14:51 9.41951 123.67756 2394 ft 149 kts 33°
2026-04-21 14:52 9.42816 123.68284 2243 ft 142 kts 34°
2026-04-21 14:52 9.43641 123.68799 2084 ft 137 kts 34°
2026-04-21 14:52 9.44440 123.69295 1979 ft 132 kts 34°
2026-04-21 14:52 9.45204 123.69763 1925 ft 125 kts 34°
2026-04-21 14:53 9.45930 123.70203 1902 ft 118 kts 34°
2026-04-21 14:53 9.46612 123.70604 1915 ft 107 kts 34°
2026-04-21 14:53 9.47232 123.70958 1904 ft 102 kts 34°
2026-04-21 14:53 9.47856 123.71320 1822 ft 110 kts 34°
2026-04-21 14:54 9.48519 123.71728 1675 ft 110 kts 34°
2026-04-21 14:54 9.49160 123.72133 1543 ft 108 kts 34°
2026-04-21 14:54 9.49794 123.72527 1405 ft 107 kts 33°
2026-04-21 14:54 9.50437 123.72926 1281 ft 109 kts 32°
2026-04-21 14:55 9.51091 123.73323 1149 ft 110 kts 31°
2026-04-21 14:55 9.51749 123.73713 1022 ft 110 kts 32°
2026-04-21 14:55 9.52411 123.74107 896 ft 111 kts 31°
2026-04-21 14:55 9.53078 123.74509 777 ft 113 kts 31°
2026-04-21 14:56 9.53760 123.74914 645 ft 115 kts 31°
2026-04-21 14:56 9.54228 123.75184 552 ft 115 kts 31°
2026-04-21 14:56 9.54915 123.75593 424 ft 117 kts 31°
2026-04-21 14:56 9.55616 123.76004 288 ft 116 kts 29°
2026-04-21 14:57 9.56298 123.76415 139 ft 111 kts 29°
2026-04-21 14:57 9.56945 123.76805 55 ft 100 kts 30°
2026-04-21 14:57 9.57434 123.77093 52 ft 45 kts 28°
2026-04-21 14:57 9.57628 123.77207 53 ft 27 kts 31°